Weather History for Minneapolis Flying Cloud, MN

Change the Weather History Date:

Tuesday, January 28, 2014

  Actual Average Record
Temperature  
Mean Temperature -9 °F -  
Max Temperature 0 °F 23 °F 42 °F (2008)
Min Temperature -18 °F 9 °F -18 °F (2014)
Degree Days  
Heating Degree Days 74    
Moisture  
Dew Point -17 °F    
Average Humidity 69    
Maximum Humidity 79    
Minimum Humidity 57    
Precipitation  
Precipitation 0.00 in - - ()
Sea Level Pressure  
Sea Level Pressure 30.34 in    
Wind  
Wind Speed 7 mph (WSW)    
Max Wind Speed 13 mph    
Max Gust Speed 22 mph    
Visibility 10 miles    
Events      
Averages and records for this station are not official NWS values.
T = Trace of Precipitation, MM = Missing Value Source: NWS Daily Summary

Daily Weather History Graph

Daily Weather History Graph

Search for Another Location

Airport:

Trip Planner

Search our weather history database for the weather conditions in past years. The results will help you decide how hot, cold, wet, or windy it might be!

Date:

Astronomy

Jan. 28, 2014 Rise Set
Actual Time 7:37 AM CST 5:16 PM CST
Civil Twilight 7:06 AM CST 5:48 PM CST
Nautical Twilight 6:30 AM CST 6:23 PM CST
Astronomical Twilight 5:56 AM CST 6:57 PM CST
Moon 5:21 AM CST (1/28) 3:05 PM CST (1/28)
Length of Visible Light 10h 42m
Length of Day
9h 39m
Waning Crescent, 7% of the Moon is Illuminated
Jan 28
Waning Crescent
Jan 30
New
Feb 6
First Quarter
Feb 14
Full
Feb 22
Last Quarter

Hourly Weather History & Observations

Time (CST) Temp. Windchill Dew Point Humidity Pressure Visibility Wind Dir Wind Speed Gust Speed Precip Events Conditions
12:53 AM -15.0 °F -29.3 °F -20.9 °F 75% 30.45 in 10.0 mi WSW 5.8 mph - N/A   Clear
1:53 AM -15.0 °F -31.0 °F -20.9 °F 75% 30.44 in 10.0 mi WSW 6.9 mph - N/A   Clear
2:53 AM -16.1 °F -32.3 °F -20.9 °F 79% 30.44 in 10.0 mi WSW 6.9 mph - N/A   Clear
3:53 AM -17.0 °F -33.4 °F -22.0 °F 78% 30.43 in 10.0 mi WSW 6.9 mph - N/A   Clear
4:53 AM -18.0 °F -33.0 °F -23.1 °F 78% 30.42 in 10.0 mi WSW 5.8 mph - N/A   Clear
5:53 AM -18.0 °F -34.7 °F -23.1 °F 78% 30.42 in 10.0 mi WSW 6.9 mph - N/A   Clear
6:53 AM -18.9 °F -34.0 °F -24.0 °F 78% 30.43 in 10.0 mi WSW 5.8 mph - N/A   Clear
7:53 AM -18.0 °F -30.9 °F -23.1 °F 78% 30.42 in 10.0 mi WSW 4.6 mph - N/A   Clear
8:53 AM -15.0 °F -27.4 °F -20.0 °F 78% 30.41 in 10.0 mi WSW 4.6 mph - N/A   Clear
9:53 AM -9.9 °F -24.9 °F -18.0 °F 68% 30.41 in 10.0 mi West 6.9 mph - N/A   Clear
10:53 AM -8.0 °F -23.9 °F -17.0 °F 65% 30.40 in 10.0 mi West 8.1 mph - N/A   Clear
11:53 AM -6.0 °F -24.6 °F -17.0 °F 59% 30.37 in 10.0 mi West 11.5 mph - N/A   Clear
12:53 PM -4.0 °F -19.0 °F -15.0 °F 59% 30.35 in 10.0 mi West 8.1 mph 19.6 mph N/A   Clear
1:53 PM -2.0 °F -20.5 °F -13.0 °F 60% 30.32 in 10.0 mi West 12.7 mph 19.6 mph N/A   Clear
2:53 PM -0.9 °F -17.4 °F -13.0 °F 57% 30.29 in 10.0 mi WSW 10.4 mph - N/A   Clear
3:53 PM -0.0 °F -14.2 °F -11.9 °F 57% 30.28 in 10.0 mi West 8.1 mph 16.1 mph N/A   Clear
4:53 PM -0.9 °F -16.4 °F -11.9 °F 60% 30.27 in 10.0 mi WSW 9.2 mph 21.9 mph N/A   Clear
5:53 PM -0.9 °F -12.7 °F -11.0 °F 62% 30.27 in 10.0 mi West 5.8 mph - N/A   Clear
6:53 PM -2.0 °F -16.6 °F -11.9 °F 63% 30.27 in 10.0 mi WSW 8.1 mph - N/A   Clear
7:53 PM -5.1 °F -19.1 °F -13.0 °F 69% 30.23 in 10.0 mi SW 6.9 mph - N/A   Clear
8:53 PM -5.1 °F -15.8 °F -13.0 °F 69% 30.22 in 10.0 mi SW 4.6 mph - N/A   Clear
9:53 PM -7.1 °F -19.9 °F -14.1 °F 72% 30.20 in 10.0 mi WSW 5.8 mph - N/A   Clear
10:53 PM -7.1 °F -19.9 °F -14.1 °F 72% 30.19 in 10.0 mi WSW 5.8 mph - N/A   Clear
11:53 PM -7.1 °F -21.4 °F -14.1 °F 72% 30.17 in 10.0 mi SW 6.9 mph - N/A   Clear